Other Public Products
Issued by NWS Grand Forks, ND

Home | Current Version | Previous Version | Graphics & Text | Print | Product List | Glossary On
Versions: 1 2 3 4 5 6 7 8 9 10 11 12 13 14 15 16 17 18 19 20 21 22 23 24 25 26 27 28 29 30 31 32 33 34 35 36 37 38 39 40 41 42 43 44 45 46 47 48 49 50
000
FPUS83 KFGF 050710
OPUFGF
PRAIRIE TO PINES WEATHER ROUNDUP
NATIONAL WEATHER SERVICE EASTERN NORTH DAKOTA/GRAND FORKS ND
100 AM CST THU MAR 05 2015

 **SATELLITE DATA USED TO AUGMENT SKY COVER AT AUTOMATED STATIONS**
 *****  WEATHER ACROSS EASTERN NORTH DAKOTA  *****

CITY           SKY/WX    TMP DP  RH WIND       PRES   REMARKS
GRAND FORKS    FAIR     -14 -20  74 SW6       30.39F WCI -28
GRAND FORKS AF CLEAR    -11 -19  67 SW5       30.38S WCI -23
GRAND CITY NWS   N/A    -11 N/A N/A W3          N/A
BUXTON         NOT AVBL
DEVILS LAKE    PTCLDY    -9 -18  64 SW7       30.31S WCI -24
FARGO          CLEAR     -7 -14  71 W9        30.43S WCI -24
WAHPETON ARPT  SUNNY     -8 -13  77 SW8       30.46R WCI -23
$$

 *****  WEATHER ACROSS CENTRAL AND WESTERN NORTH DAKOTA  *****

CITY           SKY/WX    TMP DP  RH WIND       PRES   REMARKS
JAMESTOWN      CLEAR    -12 -18  74 S7        30.34F WCI -27
BISMARCK       PTCLDY    -7 -13  75 SE5       30.33F WCI -18
MINOT          CLEAR     -6 -15  65 S10       30.25F WCI -24
MINOT AFB      CLEAR    -14 -20  76 SE5       30.25F WCI -27
GARRISON         N/A    -10 -15  78 CALM      30.26F
WILLISTON      PTCLDY     1  -9  62 S6        30.19F WCI -10
DICKINSON      CLEAR     -1  -9  68 S10       30.15F WCI -17
HETTINGER      PTCLDY    -1  -9  68 S3        30.21F
$$

 *****  OTHER OBSERVATIONS NORTHEAST NORTH DAKOTA  *****

CITY           SKY/WX    TMP DP  RH WIND       PRES   REMARKS
WALHALLA         N/A     -8 -17  65 W6        30.34S WCI -21
LANGDON        NOT AVBL
CAVALIER       FAIR      -9 -15  77 SW3       30.35F
GRAFTON        NOT AVBL
CANDO          FAIR     -17 -20  83 SW6       30.31S WCI -31
FORT TOTTEN    NOT AVBL
ROLLA          FAIR      -9 -17  70 W7        30.24S WCI -24
RUGBY          FAIR     -13 -18  77 S8        30.29F WCI -30
 ***** THE ABOVE OBSERVATIONS ARE NON NWS ARE NOT QUALITY
        CONTROLLED AND MAY MIS-REPORT RAIN FOR SNOW...
$$

 *****  OTHER OBSERVATIONS SOUTHEAST NORTH DAKOTA *****

CITY           SKY/WX    TMP DP  RH WIND       PRES   REMARKS
COOPERSTOWN    NOT AVBL
VALLEY CITY    FAIR      -9 -13  84 CALM      30.36F
OAKES            N/A     -8 -13  77 SW7       30.40F WCI -22
GWINNER        SUNNY     -4 -13  65 W8        30.42S WCI -19
BUFFALO        NOT AVBL
WYNDMERE       NOT AVBL
 ***** THE ABOVE OBSERVATIONS ARE NON NWS ARE NOT QUALITY
       CONTROLLED AND MAY MIS-REPORT RAIN FOR SNOW...
$$

  *****  WEATHER ACROSS NORTHERN MINNESOTA  *****

CITY           SKY/WX    TMP DP  RH WIND       PRES   REMARKS
FLAG ISLAND    CLEAR    -13 -18  77 S3        30.29S
WARROAD        CLEAR    -11 -17  77 SW6       30.31F WCI -25
ROSEAU         CLEAR    -11 -17  77 SW6       30.33S WCI -25
HALLOCK        NOT AVBL
THF RVR FALLS  CLEAR    -11 N/A N/A CALM      30.34F
HALSTAD        NOT AVBL
FOSSTON        CLEAR    -20 -26  76 SW3       30.36S
BAUDETTE       CLEAR    -14 -19  79 SW5       30.30S WCI -26
WASKISH        CLEAR    -11 -17  77 SW6       30.33S WCI -25
CROOKSTON      CLEAR     -9 -15  77 W5        30.41S WCI -21
$$
  *****  WEATHER ACROSS CENTRAL AND WEST MINNESOTA  *****

CITY           SKY/WX    TMP DP  RH WIND       PRES   REMARKS
BEMIDJI        CLEAR    -15 -19  80 W3        30.32S
PARK RAPIDS    CLEAR    -14 -19  79 CALM      30.34R
WADENA         CLEAR    -13 -17  84 W5        30.37S WCI -25
DETROIT LAKES  CLEAR     -8 -11  84 W5        30.37R WCI -19
MOORHEAD       FAIR      -6 -11  77 SW5       30.43S WCI -17
FERGUS FALLS   CLEAR     -9 -17  70 CALM      30.47R
ELBOW LAKE     FAIR     -13 -17  81 SW5       30.42S WCI -25
MORRIS MN      CLEAR    -11 -17  77 W6        30.43F WCI -25
STAPLES        PTCLDY   -15 -18  84 CALM      30.38S
WHEATON        CLEAR    -11 -17  77 SW6       30.47S WCI -25
$$
  *****  WEATHER ELSEWHERE ACROSS MINNESOTA  *****

CITY           SKY/WX    TMP DP  RH WIND       PRES   REMARKS
DULUTH         CLEAR    -10 -18  67 W6        30.31R WCI -23
INTRNTL FALLS  CLEAR    -15 -21  74 SW5       30.31R WCI -27
ELY            CLEAR    -15 -20  76 SW5       30.28R WCI -27
CLOQUET        CLEAR     -9 -18  64 W7        30.34R WCI -24
BRAINERD       CLEAR    -16 -21  78 CALM      30.39R
HIBBING        CLEAR    -21 -26  77 SW3       30.32R
ALEXANDRIA     CLEAR    -13 -17  82 SW7       30.39S WCI -29
SAINT CLOUD    PTCLDY    -7 -14  71 W6        30.42S WCI -20
MINNEAPOLIS    CLEAR     -3 -13  62 NW8       30.43S WCI -18
$$

  *****  WEATHER ACROSS SOUTH DAKOTA  *****

CITY           SKY/WX    TMP DP  RH WIND       PRES   REMARKS
SIOUX FALLS    CLEAR     -6 -11  79 NW3       30.44S
BROOKINGS      NOT AVBL
WATERTOWN      CLEAR    -10 -17  71 CALM      30.38F
HURON          CLEAR     -9 -14  78 CALM      30.46F
SISSETON         N/A     -8 -14  74 NW6       30.44R WCI -21
ABERDEEN       CLEAR    -14 -20  74 S3        30.43F
MITCHELL         N/A     -3  -8  79 CALM      30.48F
PIERRE         PTCLDY    -5 -11  75 SE6       30.38S WCI -18
MOBRIDGE       CLEAR     -1  -8  72 S8        30.32S WCI -15
RAPID CITY     CLEAR      6   0  76 S9        30.21F WCI  -8
$$

  *****  SOME WEATHER IN NEARBY STATES *****

CITY           SKY/WX    TMP DP  RH WIND       PRES   REMARKS
GLASGOW MT     CLEAR      9  -2  61 E15       30.06F WCI  -8
GREAT FALLS MT CLEAR     26  14  60 SW12      30.04R WCI  16
CHEYENNE WY    CLEAR      7  -2  66 SW3       30.12F
SCOTTSBLUFF NE CLEAR      7   1  76 E3        30.23F
OMAHA NE       CLEAR      6  -2  69 N5        30.49S WCI  -3
DES MOINES IA  PTCLDY     8  -1  66 NW9       30.45F WCI  -5
DAVENPORT IA   CLEAR      6  -3  66 N8        30.42F WCI  -7
CHICAGO IL     PTCLDY     9  -4  55 NW12      30.36R WCI  -6
EAU CLAIRE WI  CLEAR     -4 -15  59 NW7       30.39R WCI -18
LA CROSSE WI   CLEAR      0  -9  65 CALM      30.44R
$$

  *****  SOME NATIONAL WEATHER *****

CITY           SKY/WX    TMP DP  RH WIND       PRES   REMARKS
LA GUARDIA NY  LGT RAIN  39  35  86 NW8       29.90R
RALEIGH NC     MOCLDY    66  58  75 SW16      29.88S
ATLANTA GA     CLOUDY    67  63  87 SW12      29.92F
NEW ORLEANS LA PTCLDY    70  67  90 S12       29.93F
OKLAHOMA CITY  PTCLDY    17  13  84 NW6       30.42S WCI   9
ALBUQUERQUE NM CLEAR     30  19  63 N7        30.26R WCI  23
SALT LAKE CITY CLEAR     28  19  69 SE6       30.35R WCI  22
LOS ANGELES CA PTCLDY    56  48  74 E6        30.16R
BOISE ID       CLEAR     29  16  58 SE7       30.33R WCI  22
SEATTLE WA     PTCLDY    44  24  45 NE3       30.30S
$$

*** WEATHER ACROSS MANITOBA...SASKATCHEWAN AND ONTARIO ***
                ***ONTARIO***

CITY           SKY/WX    TMP DP  RH WIND       PRES   REMARKS
GERALDTON      CLEAR    -13 -18  77 W7        30.16R WCI -29
THUNDER BAY    CLEAR    -20 -26  76 NW6       30.32R WCI -36
SIOUX LOOKOUT  CLEAR    -11 -18  70 W6        30.21R WCI -25
TORONTO        CLOUDY    10  -4  52 NW16G24   30.21R WCI  -7
BIG TROUT LK   CLEAR    -13 -17  84 W9        30.04S WCI -31
PICKLE LAKE    NOT AVBL
DRYDEN         CLEAR    -13 -18  77 W9        30.22S WCI -31
KENORA         CLEAR    -15 -18  84 SW6       30.25S WCI -29
$$
                *** MANITOBA***

CITY           SKY/WX    TMP DP  RH WIND       PRES   REMARKS
BRANDON        CLEAR    -17 -24  70 W12       30.27F WCI -38
DAUPHIN        CLEAR     -6 -17  59 W15       30.22F WCI -27
ISLAND LAKE    CLEAR    -11 -20  64 W8        30.11S WCI -28
PILOT MOUND      N/A    -20 -26  76 SW6         N/A  WCI -36
THE PAS        CLEAR     -9 -18  64 S7        30.10F WCI -24
THOMPSON       CLEAR    -17 -22  76 W2        30.03F
WINNIPEG       CLEAR     -9 -18  64 SW12      30.32F WCI -29
LYNN LAKE      CLEAR    -15 -20  76 SW9       29.91F WCI -33
CHURCHILL      CLEAR    -22 -29  69 W10       29.96S WCI -44
GILLAM         PTCLDY   -15 -22  70 W8        30.00S WCI -32
$$
                ***SASKATCHEWAN***

CITY           SKY/WX    TMP DP  RH WIND       PRES   REMARKS
ESTEVAN        CLEAR    -15 -20  76 S7        30.17F WCI -31
KINDERSLEY     PTCLDY     3  -2  78 S10       29.96F WCI -12
LLOYDMINSTER   CLOUDY     7   1  78 S7        29.89F WCI  -5
PRINCE ALBERT  CLOUDY   -13 -18  77 SW3       30.05F
REGINA         PTCLDY   -13 -18  77 SE14      30.10F WCI -35
YORKTON        CLEAR    -15 -22  70 S8        30.14F WCI -32



USA.gov is the U.S. government's official web portal to all federal, state and local government web resources and services.